User: anonymous   Login
Location: Minneapolis
(45.0000°N, 93.0000°W)
Time: 14:26:19
(UTC-05:00)
Language:

ISS - Orbit

View from above orbital plane
View from above orbital plane
View from above satellite
View from above satellite

Ground track
Ground track

The orbit data is extracted from the following two-line orbital elements,

1 25544U 98067A   18172.31512506  .00016717  00000-0  10270-3 0  9032
2 25544  51.6424 358.1382 0003248 238.2382 121.8454 15.53975871 39153
Epoch (UTC): 21 June 2018 07:33:46
Eccentricity: 0.0003248
inclination: 51.6424°
perigee height: 403 km
apogee height: 407 km
right ascension of ascending node: 358.1382°
argument of perigee: 238.2382°
revolutions per day: 15.53975871
mean anomaly at epoch: 121.8454°
orbit number at epoch: 3915

The dashed part of the orbit path shows where the satellite is in the earth's shadow,  

DLR